Easton, MD

10:01 AM EDT on September 21, 2019 (GMT -0400)
Easton / Newnam

Weather History for KESN - July, 2019

Change the Weather History Date:

Wednesday, July 24, 2019

  Actual Average Record
Temperature  
Mean Temperature 75 °F -  
Max Temperature 86 °F 88 °F 100 °F (1952)
Min Temperature 64 °F 67 °F 39 °F (2006)
Cooling Degree Days 10    
Growing Degree Days 25 (Base 50)    
Moisture  
Dew Point 65 °F    
Average Humidity 80    
Maximum Humidity 97    
Minimum Humidity 43    
Precipitation  
Precipitation 0.01 in - - ()
Sea Level Pressure  
Sea Level Pressure 29.97 in    
Wind  
Wind Speed 4 mph (NNE)    
Max Wind Speed 10 mph    
Max Gust Speed -    
Visibility 10 miles    
Events      
Averages and records for this station are not official NWS values.
T = Trace of Precipitation, MM = Missing Value Source: NWS Daily Summary

Daily Weather History Graph

Daily Weather History Graph

Search for Another Location

Airport or City:

Astronomy

Jul. 24, 2019 Rise Set
Actual Time 5:58 AM EDT 8:22 PM EDT
Civil Twilight 5:28 AM EDT 8:52 PM EDT
Nautical Twilight 4:50 AM EDT 9:30 PM EDT
Astronomical Twilight 4:08 AM EDT 10:11 PM EDT
Moon 12:13 AM EDT (7/24) 1:03 PM EDT (7/24)
Length of Visible Light 15h 24m
Length of Day
14h 24m
Waning Gibbous, 54% of the Moon is Illuminated
Jul 24
Waning Gibbous
Jul 24
Last Quarter
Jul 31
New
Aug 7
First Quarter
Aug 15
Full

Hourly Weather History & Observations

Time (EDT) Temp. Heat Index Dew Point Humidity Pressure Visibility Wind Dir Wind Speed Gust Speed Precip Events Conditions
12:19 AM 69.8 °F - 68.5 °F 96% 29.90 in 7.0 mi Calm Calm - N/A   Scattered Clouds
12:39 AM 69.8 °F - 68.7 °F 96% 29.90 in 7.0 mi Calm Calm - N/A   Clear
12:59 AM 69.8 °F - 68.7 °F 96% 29.90 in 7.0 mi Calm Calm - N/A   Clear
1:19 AM 69.3 °F - 68.2 °F 96% 29.89 in 4.0 mi Calm Calm - N/A   Clear
1:39 AM 69.1 °F - 68.2 °F 97% 29.89 in 4.0 mi Calm Calm - 0.01 in   Clear
1:59 AM 69.3 °F - 68.2 °F 96% 29.90 in 10.0 mi NNW 5.8 mph - 0.01 in   Mostly Cloudy
2:19 AM 69.4 °F - 68.4 °F 96% 29.90 in 10.0 mi North 9.2 mph - N/A   Scattered Clouds
2:39 AM 69.3 °F - 68.0 °F 96% 29.91 in 10.0 mi North 6.9 mph - N/A   Scattered Clouds
2:59 AM 69.1 °F - 68.0 °F 96% 29.92 in 10.0 mi North 5.8 mph - N/A   Clear
3:19 AM 69.1 °F - 67.8 °F 96% 29.92 in 10.0 mi North 6.9 mph - N/A   Scattered Clouds
3:39 AM 68.9 °F - 67.5 °F 95% 29.92 in 10.0 mi NNE 6.9 mph - N/A   Scattered Clouds
3:59 AM 68.9 °F - 67.5 °F 95% 29.92 in 10.0 mi NNE 5.8 mph - N/A   Scattered Clouds
4:02 AM 68.9 °F - 67.5 °F 95% 29.92 in 10.0 mi North 6.9 mph - N/A   Scattered Clouds
4:18 AM 68.9 °F - 67.1 °F 94% 29.92 in 10.0 mi North 5.8 mph - N/A   Scattered Clouds
4:38 AM 68.4 °F - 66.6 °F 94% 29.93 in 10.0 mi NNE 9.2 mph - N/A   Clear
4:58 AM 67.3 °F - 65.5 °F 94% 29.93 in 10.0 mi NNE 8.1 mph - N/A   Clear
5:18 AM 66.9 °F - 64.2 °F 91% 29.94 in 10.0 mi North 6.9 mph - N/A   Clear
5:38 AM 66.2 °F - 64.2 °F 93% 29.94 in 10.0 mi North 5.8 mph - N/A   Clear
5:41 AM 66.2 °F - 64.0 °F 93% 29.94 in 10.0 mi North 5.8 mph - N/A   Clear
5:50 AM 66.2 °F - 64.4 °F 94% 29.95 in 10.0 mi North 5.8 mph - N/A   Mostly Cloudy
6:50 AM 64.4 °F - 62.6 °F 94% 29.97 in 10.0 mi North 5.8 mph - N/A   Mostly Cloudy
7:46 AM 68.0 °F - 62.6 °F 83% 29.98 in 10.0 mi North 8.1 mph - N/A   Mostly Cloudy
8:45 AM 71.6 °F - 64.4 °F 78% 29.99 in 10.0 mi NNW 6.9 mph - N/A   Scattered Clouds
9:45 AM 75.2 °F - 66.2 °F 73% 30.00 in 10.0 mi North 8.1 mph - N/A   Scattered Clouds
10:45 AM 78.8 °F - 64.4 °F 61% 30.00 in 10.0 mi North 6.9 mph - N/A   Scattered Clouds
11:50 AM 80.6 °F 82.3 °F 64.4 °F 58% 30.00 in 10.0 mi North 6.9 mph - N/A   Scattered Clouds
12:50 PM 82.4 °F 83.4 °F 62.6 °F 51% 30.00 in 10.0 mi North 5.8 mph - N/A   Scattered Clouds
1:50 PM 82.4 °F 83.4 °F 62.6 °F 51% 30.00 in 10.0 mi North 4.6 mph - N/A   Scattered Clouds
2:50 PM 82.4 °F 82.5 °F 59.0 °F 45% 30.00 in 10.0 mi North 8.1 mph - N/A   Scattered Clouds
3:50 PM 86.0 °F 86.1 °F 60.8 °F 43% 29.99 in 10.0 mi North 10.4 mph - N/A   Scattered Clouds
4:50 PM 84.2 °F 84.4 °F 60.8 °F 45% 29.99 in 10.0 mi NE 4.6 mph - N/A   Scattered Clouds
5:50 PM 84.2 °F 84.4 °F 60.8 °F 45% 29.99 in 10.0 mi NE 6.9 mph - N/A   Partly Cloudy
6:50 PM 82.4 °F 82.9 °F 60.8 °F 48% 30.00 in 10.0 mi NE 3.5 mph - N/A   Partly Cloudy
7:50 PM 80.6 °F 81.8 °F 62.6 °F 54% 30.02 in 10.0 mi Calm Calm - N/A   Partly Cloudy
8:50 PM 75.2 °F - 66.2 °F 73% 30.03 in 10.0 mi Calm Calm - N/A   Scattered Clouds
9:50 PM 75.2 °F - 66.2 °F 73% 30.05 in 10.0 mi Calm Calm - N/A   Scattered Clouds
10:18 PM 73.8 °F - 65.7 °F 76% 30.06 in 10.0 mi East 4.6 mph - N/A   Clear
10:38 PM 73.9 °F - 66.2 °F 77% 30.06 in 10.0 mi ESE 5.8 mph - N/A   Clear
10:58 PM 73.4 °F - 66.4 °F 79% 30.06 in 10.0 mi SE 5.8 mph - N/A   Clear
11:18 PM 72.9 °F - 66.6 °F 81% 30.06 in 10.0 mi Calm Calm - N/A   Clear
11:38 PM 72.5 °F - 66.6 °F 82% 30.07 in 10.0 mi Calm Calm - N/A   Clear
11:58 PM 71.4 °F - 66.6 °F 85% 30.07 in 10.0 mi Calm Calm - N/A   Clear